Location: Camaret
(48.2753°N, 4.5961°W)
Time: 01:23:29
(UTC+00:00)

FALCON 9 DEB - Pass Details

Date: 29 October 2020
Orbit: 378 x 397 km, 53.0° (Epoch: 26 November)

Event Time Altitude Azimuth Distance (km) Brightness Sun altitude
Rises 18:24:04 0° 256° (WSW) 2,303 8.7 -13.9°
Reaches altitude 10° 18:26:10 10° 261° (W) 1,444 7.2 -14.2°
Maximum altitude 18:29:21 55° 341° (NNW) 484 3.4 -14.8°
Enters shadow 18:30:46 28° 47° (NE) 780 4.0 -15.0°
